| time (UTC) | temp F | wind direction | speed MPH | gust MPH | rain 1hr in | rain 24hr in | rain mn in | humidity % | barometer mb |
| 20260902113035 | 72 | 127 | 0.0 | 0.0 | 0.00 | 0.01 | 0.00 | 94 | 1014.5 |
| 20260902111502 | 72 | 241 | 0.0 | 0.0 | 0.00 | 0.01 | 0.00 | 94 | 1014.4 |
| 20260902110042 | 72 | 241 | 0.0 | 0.0 | 0.00 | 0.01 | 0.00 | 94 | 1014.6 |
| 20260902104600 | 72 | 241 | 0.0 | 0.0 | 0.00 | 0.01 | 0.00 | 94 | 1014.4 |
| 20260902103027 | 72 | 241 | 0.0 | 0.0 | 0.00 | 0.01 | 0.00 | 94 | 1014.2 |
| 20260902101549 | 72 | 241 | 0.0 | 0.0 | 0.00 | 0.01 | 0.00 | 94 | 1014.1 |
| 20260902100015 | 73 | 241 | 0.0 | 0.0 | 0.00 | 0.01 | 0.00 | 93 | 1014.2 |
| 20260902094542 | 73 | 241 | 0.0 | 0.0 | 0.00 | 0.01 | 0.00 | 93 | 1014.0 |
| 20260902093012 | 73 | 127 | 0.0 | 0.0 | 0.00 | 0.01 | 0.00 | 94 | 1014.0 |
| 20260902091535 | 73 | 72 | 0.0 | 0.0 | 0.00 | 0.01 | 0.00 | 94 | 1014.0 |
| 20260902090100 | 73 | 72 | 0.0 | 0.0 | 0.00 | 0.01 | 0.00 | 94 | 1013.9 |
| 20260902084525 | 73 | 70 | 0.0 | 0.0 | 0.00 | 0.01 | 0.00 | 93 | 1013.9 |
| 20260902083049 | 73 | 70 | 0.0 | 0.0 | 0.00 | 0.01 | 0.00 | 92 | 1013.9 |
| 20260902081512 | 74 | 70 | 0.0 | 0.0 | 0.00 | 0.01 | 0.00 | 91 | 1013.9 |
| 20260902080048 | 74 | 70 | 0.0 | 0.0 | 0.00 | 0.01 | 0.00 | 91 | 1013.9 |
| 20260902074504 | 75 | 96 | 0.0 | 0.0 | 0.00 | 0.01 | 0.00 | 90 | 1013.9 |
| 20260902073032 | 76 | 110 | 0.0 | 0.0 | 0.00 | 0.01 | 0.00 | 89 | 1013.7 |
| 20260902071557 | 76 | 72 | 0.0 | 0.0 | 0.00 | 0.01 | 0.00 | 89 | 1013.5 |
| 20260902070025 | 77 | 110 | 0.0 | 0.0 | 0.00 | 0.01 | 0.00 | 89 | 1013.5 |
| 20260902064553 | 77 | 167 | 0.0 | 0.0 | 0.00 | 0.01 | 0.00 | 90 | 1013.4 |
| 20260902063018 | 77 | 254 | 0.0 | 2.0 | 0.00 | 0.01 | 0.00 | 90 | 1013.4 |
| 20260902061545 | 77 | 233 | 0.0 | 0.0 | 0.00 | 0.01 | 0.00 | 91 | 1013.5 |
| 20260902060009 | 77 | 246 | 0.0 | 0.0 | 0.00 | 0.01 | 0.00 | 92 | 1013.6 |
| 20260902054535 | 76 | 142 | 0.0 | 0.0 | 0.00 | 0.01 | 0.00 | 93 | 1013.9 |
| 20260902053102 | 76 | 131 | 0.0 | 0.0 | 0.00 | 0.01 | 0.00 | 94 | 1013.9 |
| 20260902051528 | 76 | 124 | 0.0 | 0.0 | 0.00 | 0.01 | 0.00 | 94 | 1013.9 |
| 20260902050051 | 76 | 147 | 0.0 | 0.0 | 0.00 | 0.01 | 0.00 | 94 | 1013.9 |
| 20260902044511 | 76 | 179 | 0.0 | 0.0 | 0.00 | 0.01 | 0.00 | 94 | 1013.9 |
| 20260902043045 | 76 | 249 | 0.0 | 0.0 | 0.00 | 0.01 | 0.00 | 94 | 1013.8 |
| 20260902041505 | 76 | 283 | 0.0 | 0.0 | 0.00 | 0.01 | 0.00 | 94 | 1013.7 |
| 20260902040031 | 76 | 283 | 0.0 | 0.0 | 0.00 | 0.01 | 0.01 | 94 | 1013.9 |
| 20260902034600 | 76 | 283 | 0.0 | 0.0 | 0.00 | 0.01 | 0.01 | 94 | 1013.9 |
| 20260902033027 | 76 | 283 | 0.0 | 0.0 | 0.00 | 0.01 | 0.01 | 94 | 1013.9 |
| 20260902031555 | 76 | 283 | 0.0 | 0.0 | 0.00 | 0.01 | 0.01 | 94 | 1013.8 |
| 20260902030021 | 76 | 283 | 0.0 | 0.0 | 0.00 | 0.01 | 0.01 | 94 | 1013.6 |
| 20260902024550 | 76 | 283 | 0.0 | 0.0 | 0.00 | 0.01 | 0.01 | 94 | 1013.6 |
| 20260902023034 | 76 | 283 | 0.0 | 0.0 | 0.00 | 0.01 | 0.01 | 94 | 1013.6 |
| 20260902021549 | 76 | 283 | 0.0 | 0.0 | 0.00 | 0.01 | 0.01 | 94 | 1013.6 |
| 20260902020009 | 76 | 283 | 0.0 | 0.0 | 0.00 | 0.01 | 0.01 | 94 | 1013.8 |
| 20260902014541 | 77 | 283 | 0.0 | 0.0 | 0.00 | 0.01 | 0.01 | 93 | 1013.9 |
| 20260902013102 | 77 | 283 | 0.0 | 0.0 | 0.00 | 0.01 | 0.01 | 93 | 1013.9 |
| 20260902011525 | 78 | 283 | 0.0 | 0.0 | 0.00 | 0.01 | 0.01 | 92 | 1013.9 |
| 20260902010053 | 78 | 283 | 0.0 | 0.0 | 0.00 | 0.01 | 0.01 | 91 | 1013.8 |
| 20260902004519 | 79 | 283 | 0.0 | 0.0 | 0.00 | 0.01 | 0.01 | 90 | 1013.5 |
| 20260902003054 | 80 | 283 | 0.0 | 0.0 | 0.00 | 0.01 | 0.01 | 89 | 1013.4 |
| 20260902001513 | 80 | 283 | 0.0 | 0.0 | 0.00 | 0.01 | 0.01 | 88 | 1013.4 |
| 20260902000049 | 81 | 283 | 0.0 | 0.0 | 0.00 | 0.01 | 0.01 | 87 | 1013.6 |
| 20260901234506 | 82 | 283 | 0.0 | 0.0 | 0.00 | 0.01 | 0.01 | 85 | 1013.7 |
| 20260901233033 | 82 | 283 | 0.0 | 0.0 | 0.00 | 0.01 | 0.01 | 84 | 1013.8 |
| 20260901231601 | 83 | 283 | 0.0 | 0.0 | 0.00 | 0.01 | 0.01 | 83 | 1013.8 |
| 20260901230033 | 84 | 283 | 0.0 | 0.0 | 0.00 | 0.01 | 0.01 | 81 | 1014.0 |
| 20260901224556 | 85 | 283 | 0.0 | 0.0 | 0.00 | 0.01 | 0.01 | 78 | 1013.8 |
| 20260901223021 | 86 | 134 | 0.0 | 0.0 | 0.00 | 0.01 | 0.01 | 77 | 1013.8 |
| 20260901221550 | 86 | 261 | 0.0 | 0.0 | 0.00 | 0.01 | 0.01 | 76 | 1013.8 |
| 20260901220030 | 86 | 257 | 0.0 | 0.0 | 0.00 | 0.01 | 0.01 | 75 | 1013.7 |
| 20260901214543 | 86 | 354 | 0.0 | 0.0 | 0.00 | 0.01 | 0.01 | 77 | 1013.3 |
| 20260901213021 | 86 | 251 | 0.0 | 0.0 | 0.00 | 0.01 | 0.01 | 76 | 1013.5 |
| 20260901211537 | 86 | 76 | 0.0 | 0.0 | 0.00 | 0.01 | 0.01 | 75 | 1013.9 |
| 20260901210003 | 87 | 96 | 0.0 | 0.0 | 0.00 | 0.01 | 0.01 | 72 | 1013.4 |
| 20260901204536 | 88 | 271 | 0.0 | 0.0 | 0.00 | 0.01 | 0.01 | 73 | 1013.5 |
| 20260901203106 | 86 | 189 | 0.0 | 0.0 | 0.00 | 0.01 | 0.01 | 78 | 1013.9 |
| 20260901201516 | 82 | 127 | 0.0 | 0.0 | 0.00 | 0.01 | 0.01 | 86 | 1014.5 |
| 20260901200045 | 81 | 41 | 0.0 | 0.0 | 0.00 | 0.01 | 0.01 | 86 | 1014.8 |
| 20260901194510 | 81 | 40 | 0.0 | 0.0 | 0.00 | 0.01 | 0.01 | 87 | 1014.5 |
| 20260901193044 | 81 | 108 | 0.0 | 0.0 | 0.00 | 0.01 | 0.01 | 86 | 1014.8 |
| 20260901191502 | 80 | 108 | 0.0 | 0.0 | 0.00 | 0.01 | 0.01 | 85 | 1015.0 |
| 20260901190030 | 80 | 110 | 0.0 | 0.0 | 0.00 | 0.01 | 0.01 | 84 | 1014.9 |
| 20260901184603 | 81 | 111 | 0.0 | 0.0 | 0.00 | 0.01 | 0.01 | 84 | 1015.0 |
| 20260901183036 | 82 | 139 | 0.0 | 0.0 | 0.00 | 0.01 | 0.01 | 82 | 1015.0 |
| 20260901181551 | 82 | 125 | 0.0 | 0.0 | 0.00 | 0.01 | 0.01 | 81 | 1014.6 |
| 20260901180016 | 83 | 89 | 0.0 | 0.0 | 0.00 | 0.02 | 0.01 | 77 | 1014.4 |
| 20260901174545 | 84 | 78 | 0.0 | 0.0 | 0.00 | 0.02 | 0.01 | 75 | 1014.5 |
| 20260901173008 | 86 | 46 | 0.0 | 1.0 | 0.00 | 0.02 | 0.01 | 71 | 1014.3 |
| 20260901171539 | 85 | 244 | 0.0 | 0.0 | 0.00 | 0.02 | 0.01 | 71 | 1014.1 |
| 20260901170108 | 83 | 328 | 0.0 | 2.0 | 0.00 | 0.02 | 0.01 | 73 | 1014.1 |
| 20260901164528 | 83 | 129 | 0.0 | 0.0 | 0.00 | 0.02 | 0.01 | 73 | 1014.4 |
| 20260901163056 | 83 | 103 | 0.0 | 0.0 | 0.00 | 0.02 | 0.01 | 75 | 1014.4 |
| 20260901161521 | 82 | 88 | 0.0 | 0.0 | 0.00 | 0.02 | 0.01 | 75 | 1014.4 |
| 20260901160051 | 83 | 85 | 0.0 | 1.0 | 0.00 | 0.02 | 0.01 | 73 | 1014.5 |
| 20260901154514 | 84 | 105 | 0.0 | 0.0 | 0.01 | 0.02 | 0.01 | 73 | 1014.5 |
| 20260901153041 | 83 | 186 | 0.0 | 0.0 | 0.01 | 0.02 | 0.01 | 76 | 1014.5 |
| 20260901151504 | 80 | 211 | 0.0 | 2.0 | 0.01 | 0.02 | 0.01 | 78 | 1014.4 |
| 20260901150031 | 80 | 115 | 0.0 | 1.0 | 0.01 | 0.02 | 0.01 | 81 | 1014.5 |
| 20260901144557 | 79 | 52 | 0.0 | 1.0 | 0.00 | 0.01 | 0.00 | 80 | 1014.5 |
| 20260901143022 | 78 | 147 | 0.0 | 1.0 | 0.00 | 0.01 | 0.00 | 81 | 1014.6 |
| 20260901141547 | 78 | 84 | 0.0 | 0.0 | 0.00 | 0.01 | 0.00 | 81 | 1014.6 |
| 20260901140014 | 77 | 99 | 0.0 | 0.0 | 0.00 | 0.01 | 0.00 | 83 | 1014.4 |
| 20260901134544 | 76 | 153 | 0.0 | 0.0 | 0.00 | 0.01 | 0.00 | 85 | 1014.4 |
| 20260901133103 | 76 | 33 | 0.0 | 0.0 | 0.00 | 0.01 | 0.00 | 83 | 1014.4 |
| 20260901131536 | 76 | 131 | 0.0 | 0.0 | 0.00 | 0.01 | 0.00 | 84 | 1014.7 |
| 20260901130056 | 75 | 265 | 0.0 | 0.0 | 0.00 | 0.01 | 0.00 | 85 | 1014.9 |
| 20260901124520 | 74 | 224 | 0.0 | 2.0 | 0.00 | 0.01 | 0.00 | 87 | 1015.0 |
| 20260901123044 | 72 | 51 | 0.0 | 0.0 | 0.00 | 0.01 | 0.00 | 89 | 1014.8 |
| 20260901121510 | 72 | 127 | 0.0 | 0.0 | 0.00 | 0.01 | 0.00 | 90 | 1014.6 |
| 20260901120051 | 71 | 127 | 0.0 | 0.0 | 0.00 | 0.01 | 0.00 | 90 | 1014.4 |
| 20260901114503 | 71 | 143 | 0.0 | 0.0 | 0.00 | 0.01 | 0.00 | 91 | 1014.3 |